Weather History for KCKC - September, 2012

Change the Weather History Date:

Wednesday, September 26, 2012

  Actual Average Record
Temperature  
Mean Temperature 42 °F -  
Max Temperature 53 °F 54 °F 71 °F (2008)
Min Temperature 28 °F 37 °F 28 °F (2012)
Degree Days  
Heating Degree Days 24    
Moisture  
Dew Point 31 °F    
Average Humidity 69    
Maximum Humidity 93    
Minimum Humidity 38    
Precipitation  
Precipitation 0.00 in - - ()
Sea Level Pressure  
Sea Level Pressure 30.10 in    
Wind  
Wind Speed 3 mph (NW)    
Max Wind Speed 9 mph    
Max Gust Speed -    
Visibility 10 miles    
Events      
Averages and records for this station are not official NWS values.
T = Trace of Precipitation, MM = Missing Value Source: NWS Daily Summary

Daily Weather History Graph

Daily Weather History Graph

Search for Another Location

Airport or City:

Trip Planner

Search our weather history database for the weather conditions in past years. The results will help you decide how hot, cold, wet, or windy it might be!

Date:

Astronomy

Sep. 26, 2012 Rise Set
Actual Time 6:54 AM CDT 6:50 PM CDT
Civil Twilight 6:23 AM CDT 7:20 PM CDT
Nautical Twilight 5:47 AM CDT 7:56 PM CDT
Astronomical Twilight 5:10 AM CDT 8:33 PM CDT
Moon 4:59 PM CDT 3:07 AM CDT
Length of Visible Light 12h 57m
Length of Day
11h 55m
Waxing Gibbous, 88% of the Moon is Illuminated
Sep 26
Waxing Gibbous
Sep 29
Full
Oct 8
Last Quarter
Oct 15
New
Oct 21
First Quarter

Hourly Weather History & Observations

Time (CDT) Temp. Windchill Dew Point Humidity Pressure Visibility Wind Dir Wind Speed Gust Speed Precip Events Conditions
12:14 AM 35.6 °F - 33.8 °F 93% 29.97 in 10.0 mi Calm Calm - N/A   Mostly Cloudy
12:33 AM 35.6 °F 32.8 °F 32.0 °F 87% 29.97 in 10.0 mi WNW 3.5 mph - N/A   Mostly Cloudy
1:13 AM 37.4 °F 34.9 °F 33.8 °F 87% 29.97 in 10.0 mi WNW 3.5 mph - N/A   Mostly Cloudy
1:34 AM 37.4 °F - 33.8 °F 87% 29.98 in 10.0 mi Calm Calm - N/A   Scattered Clouds
1:53 AM 35.6 °F - 32.0 °F 87% 29.98 in 10.0 mi Calm Calm - N/A   Scattered Clouds
2:14 AM 35.6 °F - 32.0 °F 87% 29.98 in 10.0 mi Calm Calm - N/A   Overcast
2:34 AM 33.8 °F - 30.2 °F 87% 29.98 in 10.0 mi Calm Calm - N/A   Mostly Cloudy
2:53 AM 33.8 °F 30.8 °F 30.2 °F 87% 29.98 in 10.0 mi NW 3.5 mph - N/A   Mostly Cloudy
3:14 AM 35.6 °F 31.7 °F 33.8 °F 93% 29.98 in 10.0 mi NW 4.6 mph - N/A   Mostly Cloudy
3:34 AM 37.4 °F 33.8 °F 33.8 °F 87% 29.99 in 10.0 mi NW 4.6 mph - N/A   Mostly Cloudy
3:53 AM 35.6 °F 32.8 °F 33.8 °F 93% 29.99 in 10.0 mi NNW 3.5 mph - N/A   Overcast
4:14 AM 33.8 °F 30.8 °F 30.2 °F 87% 29.99 in 10.0 mi NW 3.5 mph - N/A   Mostly Cloudy
4:34 AM 35.6 °F 31.7 °F 32.0 °F 87% 30.00 in 10.0 mi NW 4.6 mph - N/A   Scattered Clouds
4:53 AM 35.6 °F 31.7 °F 32.0 °F 87% 30.01 in 10.0 mi NW 4.6 mph - N/A   Clear
5:14 AM 33.8 °F 30.8 °F 30.2 °F 87% 30.02 in 10.0 mi NW 3.5 mph - N/A   Clear
5:33 AM 33.8 °F 30.8 °F 30.2 °F 87% 30.03 in 10.0 mi NW 3.5 mph - N/A   Mostly Cloudy
5:54 AM 33.8 °F 30.8 °F 30.2 °F 87% 30.04 in 10.0 mi NW 3.5 mph - N/A   Mostly Cloudy
6:13 AM 33.8 °F 30.8 °F 30.2 °F 87% 30.04 in 10.0 mi NW 3.5 mph - N/A   Overcast
6:34 AM 35.6 °F 32.8 °F 32.0 °F 87% 30.05 in 10.0 mi NW 3.5 mph - N/A   Overcast
6:54 AM 35.6 °F - 30.2 °F 81% 30.06 in 10.0 mi Calm Calm - N/A   Overcast
7:34 AM 35.6 °F 32.8 °F 33.8 °F 93% 30.07 in 10.0 mi NW 3.5 mph - N/A   Overcast
7:54 AM 37.4 °F 33.8 °F 33.8 °F 87% 30.07 in 10.0 mi NW 4.6 mph - N/A   Overcast
8:14 AM 39.2 °F 37.0 °F 35.6 °F 87% 30.08 in 10.0 mi NW 3.5 mph - N/A   Overcast
8:33 AM 39.2 °F 35.9 °F 35.6 °F 87% 30.09 in 10.0 mi NW 4.6 mph - N/A   Overcast
8:54 AM 41.0 °F - 35.6 °F 81% 30.09 in 10.0 mi Calm Calm - N/A   Overcast
9:14 AM 42.8 °F 41.1 °F 35.6 °F 76% 30.10 in 10.0 mi NNW 3.5 mph - N/A   Overcast
9:34 AM 44.6 °F 43.1 °F 33.8 °F 66% 30.10 in 10.0 mi North 3.5 mph - N/A   Overcast
9:54 AM 46.4 °F 45.2 °F 30.2 °F 53% 30.10 in 10.0 mi North 3.5 mph - N/A   Overcast
10:13 AM 46.4 °F 43.5 °F 30.2 °F 53% 30.11 in 10.0 mi NW 5.8 mph - N/A   Overcast
10:33 AM 46.4 °F 43.5 °F 33.8 °F 62% 30.11 in 10.0 mi North 5.8 mph - N/A   Overcast
10:54 AM 46.4 °F 41.9 °F 30.2 °F 53% 30.12 in 10.0 mi NNW 9.2 mph - N/A   Overcast
11:14 AM 46.4 °F 43.5 °F 30.2 °F 53% 30.12 in 10.0 mi NNW 5.8 mph - N/A   Mostly Cloudy
11:34 AM 46.4 °F 42.9 °F 28.4 °F 50% 30.13 in 10.0 mi NNW 6.9 mph - N/A   Mostly Cloudy
11:53 AM 48.2 °F - 28.4 °F 46% 30.13 in 10.0 mi WNW 4.6 mph - N/A   Overcast
12:14 PM 48.2 °F - 26.6 °F 43% 30.14 in 10.0 mi NW 8.1 mph - N/A   Mostly Cloudy
12:33 PM 48.2 °F - 28.4 °F 46% 30.14 in 10.0 mi NNW 3.5 mph - N/A   Scattered Clouds
12:54 PM 50.0 °F - 28.4 °F 43% 30.13 in 10.0 mi WNW 3.5 mph - N/A   Mostly Cloudy
1:14 PM 48.2 °F - 28.4 °F 46% 30.14 in 10.0 mi NNW 6.9 mph - N/A   Scattered Clouds
1:33 PM 51.8 °F - 28.4 °F 41% 30.13 in 10.0 mi West 4.6 mph - N/A   Scattered Clouds
1:54 PM 51.8 °F - 28.4 °F 41% 30.13 in 10.0 mi WNW 4.6 mph - N/A   Scattered Clouds
2:13 PM 53.6 °F - 28.4 °F 38% 30.13 in 10.0 mi WSW 3.5 mph - N/A   Scattered Clouds
2:34 PM 51.8 °F - 26.6 °F 38% 30.13 in 10.0 mi Calm Calm - N/A   Scattered Clouds
2:54 PM 53.6 °F - 28.4 °F 38% 30.13 in 10.0 mi NNW 4.6 mph - N/A   Scattered Clouds
3:13 PM 51.8 °F - 30.2 °F 44% 30.13 in 10.0 mi West 5.8 mph - N/A   Scattered Clouds
3:34 PM 53.6 °F - 28.4 °F 38% 30.13 in 10.0 mi West 4.6 mph - N/A   Scattered Clouds
3:54 PM 51.8 °F - 28.4 °F 41% 30.13 in 10.0 mi West 4.6 mph - N/A   Clear
4:13 PM 53.6 °F - 28.4 °F 38% 30.13 in 10.0 mi WNW 3.5 mph - N/A   Clear
4:34 PM 53.6 °F - 28.4 °F 38% 30.13 in 10.0 mi NNW 6.9 mph - N/A   Clear
4:54 PM 53.6 °F - 28.4 °F 38% 30.14 in 10.0 mi West 3.5 mph - N/A   Clear
5:13 PM 53.6 °F - 28.4 °F 38% 30.14 in 10.0 mi WNW 4.6 mph - N/A   Clear
5:34 PM 51.8 °F - 28.4 °F 41% 30.15 in 10.0 mi NW 4.6 mph - N/A   Clear
5:54 PM 51.8 °F - 28.4 °F 41% 30.16 in 10.0 mi NW 4.6 mph - N/A   Clear
6:13 PM 50.0 °F - 30.2 °F 47% 30.17 in 10.0 mi WNW 3.5 mph - N/A   Clear
6:34 PM 48.2 °F - 30.2 °F 50% 30.17 in 10.0 mi Calm Calm - N/A   Clear
6:54 PM 44.6 °F - 30.2 °F 57% 30.17 in 10.0 mi Calm Calm - N/A   Clear
7:13 PM 42.8 °F - 33.8 °F 70% 30.18 in 10.0 mi Calm Calm - N/A   Clear
7:34 PM 39.2 °F - 33.8 °F 81% 30.19 in 10.0 mi Calm Calm - N/A   Clear
7:54 PM 37.4 °F 34.9 °F 33.8 °F 87% 30.19 in 10.0 mi SW 3.5 mph - N/A   Clear
8:34 PM 37.4 °F - 33.8 °F 87% 30.19 in 10.0 mi Calm Calm - N/A   Clear
8:54 PM 37.4 °F - 32.0 °F 81% 30.20 in 10.0 mi Calm Calm - N/A   Clear
9:13 PM 37.4 °F - 33.8 °F 87% 30.20 in 10.0 mi Calm Calm - N/A   Clear
9:33 PM 35.6 °F - 32.0 °F 87% 30.20 in 10.0 mi Calm Calm - N/A   Clear
9:54 PM 33.8 °F - 30.2 °F 87% 30.20 in 10.0 mi Calm Calm - N/A   Clear
10:14 PM 33.8 °F - 28.4 °F 81% 30.20 in 10.0 mi Calm Calm - N/A   Clear
10:34 PM 30.2 °F - 26.6 °F 86% 30.21 in 10.0 mi Calm Calm - N/A   Clear
10:53 PM 32.0 °F - 28.4 °F 87% 30.21 in 10.0 mi Calm Calm - N/A   Clear
11:14 PM 30.2 °F 26.7 °F 26.6 °F 86% 30.21 in 10.0 mi West 3.5 mph - N/A   Clear
11:34 PM 30.2 °F 26.7 °F 26.6 °F 86% 30.21 in 10.0 mi NW 3.5 mph - N/A   Clear
11:54 PM 28.4 °F - 24.8 °F 86% 30.21 in 10.0 mi Calm Calm - N/A   Clear